Friday, October 19, 2018, 11:00 PM GMT
Back to Local

CWAF, Ile Rouge Meteorological Aeronautical Presentation System

Location: , , Canada Lat: 48.083
Local Time: 11:00 PM GMT (23:00 GMT) Lon: -69.55
Time Zone: GMT Elev: 16 ft

Show me the last for .
Show Coded

Time T Td Feel RH Dir Speed Gust Alt SLP Vis Weather Sky Remarks
2018-10-19 22:00 40 33 31 76 160° 16 - - - 0 Peak wind: 19 mph (17 kts) from 160° at 44 min
2018-10-19 21:00 38 31 30 73 160° 16 - - - 0 None
2018-10-19 19:00 37 29 30 73 140° 9 - - - 0 None
2018-10-19 18:00 36 28 28 73 160° 13 - - - 0 None
2018-10-19 17:00 35 28 26 76 150° 13 - - - 0 None
2018-10-19 16:00 33 29 24 83 150° 12 - - - 0 None
2018-10-19 15:00 32 27 23 83 150° 10 - - - 0 None
2018-10-19 14:00 31 26 23 79 160° 10 - - - 0 None
2018-10-19 13:00 31 25 21 78 150° 12 - - - 0 None
2018-10-19 12:00 32 20 25 61 200° 7 - - - 0 None
2018-10-19 11:00 31 19 26 58 280° 6 - - - 0 None
2018-10-19 10:00 31 19 23 59 280° 9 - - - 0 None
2018-10-19 09:00 31 19 21 62 280° 12 - - - 0 None
2018-10-19 08:00 30 19 21 60 280° 12 - - - 0 None
2018-10-19 07:00 31 18 20 59 290° 14 - - - 0 Peak wind: 20 mph (18 kts) from 290° at 01 min
2018-10-19 06:00 31 21 20 63 290° 17 - - - 0 Peak wind: 28 mph (25 kts) from 310° at 12 min
2018-10-19 05:00 32 19 18 58 310° 23 29 - - 0 Peak wind: 28 mph (25 kts) from 300° at 51 min
2018-10-19 04:00 32 20 19 62 310° 21 - - - 0 Peak wind: 27 mph (24 kts) from 320° at 14 min
2018-10-19 03:00 33 21 20 59 310° 23 29 - - 0 Peak wind: 33 mph (29 kts) from 310° at 19 min
2018-10-19 02:00 33 20 21 56 310° 24 - - - 0 Peak wind: 29 mph (26 kts) from 300° at 18 min
2018-10-19 01:00 34 21 20 57 290° 28 33 - - 0 Peak wind: 33 mph (29 kts) from 290° at 56 min
2018-10-19 00:00 34 19 21 53 290° 25 31 - - 0 Peak wind: 35 mph (31 kts) from 290° at 21 min

Support USWX by starting your Amazon purchase here.